This demonstration page uses our WeatherBlox Daily Observations layout. Learn more.

Left ArrowRight Arrow

Hourly Observations for July 28, 2016

Temp ( °F °C ) Dew Point ( °F °C ) Humidity (%) Winds ( mph kmh ) Pressure ( in mb ) Visibility ( mi km ) Precip ( " mm )
12:53 am 00:53 Clear 80 26.7 65 18.3 60 60 Calm 30.03 1017 10 16 0.00 0.00
1:53 am 01:53 Clear 77 25 66 18.9 69 69 SSW 5 7 30.03 1017 10 16 0.00 0.00
2:53 am 02:53 Clear 76 24.4 67 19.4 74 74 WSW 5 7 30.00 1016 10 16 0.00 0.00
3:53 am 03:53 Clear 75 23.9 67 19.4 76 76 WSW 3 6 30.00 1016 10 16 0.00 0.00
4:53 am 04:53 Clear 74 23.3 68 20 82 82 SW 6 9 29.98 1015 10 16 0.00 0.00
5:53 am 05:53 Clear 73 22.8 68 20 84 84 SSW 7 11 29.99 1016 10 16 0.00 0.00
6:53 am 06:53 Sunny 73 22.8 68 20 84 84 SW 6 9 30.01 1016 10 16 0.00 0.00
7:28 am 07:28 Mostly Sunny 73 23 68 20 83 83 SW 7 11 30.00 1016 10 16 0.00 0.00
7:53 am 07:53 Partly Cloudy 73 22.8 68 20 84 84 SW 7 11 30.02 1017 10 16 0.00 0.00
8:53 am 08:53 Mostly Cloudy 76 24.4 69 20.6 79 79 WSW 8 13 30.02 1017 10 16 0.00 0.00
9:00 am 09:00 Mostly Cloudy 75 24 70 21 83 83 WSW 10 17 30.03 1017 10 16 0.00 0.00
9:53 am 09:53 Mostly Cloudy 79 26.1 69 20.6 72 72 SW 6 9 30.01 1016 10 16 0.00 0.00
10:00 am 10:00 Mostly Cloudy 81 27 70 21 70 70 WSW 6 9 30.03 1017 10 16 0.00 0.00
10:53 am 10:53 Cloudy 81 27.2 68 20 65 65 WSW 7 11 30.01 1016 10 16 0.00 0.00
11:53 am 11:53 Cloudy 81 27.2 68 20 65 65 SW 8 13 30.02 1017 10 16 0.00 0.00
12:01 pm 12:01 Cloudy 83 28.3 69 20.6 63 63 SSW 12 19 30.03 1017 10 16 0.00 0.00
12:53 pm 12:53 Mostly Cloudy 83 28.3 69 20.6 63 63 SW 10 17 30.01 1016 10 16 0.00 0.00
1:53 pm 13:53 Mostly Cloudy 85 29.4 68 20 57 57 SSW 12 19 29.99 1016 10 16 0.00 0.00
2:53 pm 14:53 Cloudy 86 30 68 20 55 55 SW 10 17 29.97 1015 10 16 0.00 0.00
3:53 pm 15:53 Cloudy with Light Rain 86 30 69 20.6 57 57 SW 9 15 29.95 1014 10 16 0.00 0.03
4:44 pm 16:44 Cloudy with Heavy Rain 79 26 72 22 79 79 SW 10 17 29.97 1015 2 2 0.00 0.00
4:53 pm 16:53 Cloudy with Light Rain 78 25.6 71 21.7 79 79 VRB 6 9 29.95 1014 2 3 0.12 3.05
5:00 pm 17:00 Cloudy 79 26 72 22 79 79 SSW 3 6 29.94 1014 10 16 0.00 0.00
5:53 pm 17:53 Partly Cloudy 84 28.9 73 22.8 70 70 WSW 9 15 29.94 1014 10 16 0.00 0.03
6:53 pm 18:53 Mostly Sunny 86 30 70 21.1 59 59 WSW 10 17 29.94 1014 10 16 0.00 0.00
7:53 pm 19:53 Partly Cloudy 84 28.9 70 21.1 63 63 SW 9 15 29.95 1014 10 16 0.00 0.00
8:53 pm 20:53 Mostly Clear 83 28.3 68 20 61 61 WSW 6 9 29.95 1014 10 16 0.00 0.00
9:53 pm 21:53 Partly Cloudy 81 27.2 69 20.6 67 67 NW 9 15 29.97 1015 10 16 0.00 0.00
10:53 pm 22:53 Mostly Cloudy 78 25.6 71 21.7 79 79 W 7 11 29.98 1015 10 16 0.00 0.03
11:53 pm 23:53 Clear 78 25.6 71 21.7 79 79 W 3 6 29.98 1015 10 16 0.00 0.00

Powered by AerisWeather